| time (UTC) | temp F | wind direction | speed knots | gust knots | rain 1hr in | rain 24hr in | rain mn in | humidity % | barometer mb |
| 20260902123029 | 60 | 359 | 0.0 | 0.0 | 0.00 | 0.00 | 0.00 | 31 | 1015.0 |
| 20260902121527 | 58 | 359 | 0.0 | 0.0 | 0.00 | 0.00 | 0.00 | 36 | 1014.9 |
| 20260902120022 | 56 | 359 | 0.0 | 0.0 | 0.00 | 0.00 | 0.00 | 35 | 1014.8 |
| 20260902114520 | 55 | 359 | 0.0 | 0.0 | 0.00 | 0.00 | 0.00 | 36 | 1014.9 |
| 20260902113016 | 56 | 359 | 0.0 | 0.0 | 0.00 | 0.00 | 0.00 | 35 | 1014.8 |
| 20260902111513 | 55 | 359 | 0.0 | 0.0 | 0.00 | 0.00 | 0.00 | 36 | 1014.8 |
| 20260902110017 | 55 | 359 | 0.0 | 0.0 | 0.00 | 0.00 | 0.00 | 38 | 1014.7 |
| 20260902104512 | 54 | 359 | 0.0 | 0.0 | 0.00 | 0.00 | 0.00 | 36 | 1014.6 |
| 20260902103013 | 55 | 359 | 0.0 | 0.0 | 0.00 | 0.00 | 0.00 | 37 | 1014.6 |
| 20260902101511 | 54 | 359 | 0.0 | 0.0 | 0.00 | 0.00 | 0.00 | 38 | 1014.6 |
| 20260902100010 | 54 | 359 | 0.0 | 0.0 | 0.00 | 0.00 | 0.00 | 40 | 1014.6 |
| 20260902094510 | 54 | 359 | 0.0 | 0.0 | 0.00 | 0.00 | 0.00 | 36 | 1014.2 |
| 20260902093008 | 55 | 359 | 0.0 | 0.0 | 0.00 | 0.00 | 0.00 | 36 | 1014.2 |
| 20260902091507 | 56 | 359 | 0.0 | 0.0 | 0.00 | 0.00 | 0.00 | 34 | 1014.0 |
| 20260902090008 | 56 | 359 | 0.0 | 0.0 | 0.00 | 0.00 | 0.00 | 30 | 1014.0 |
| 20260902084506 | 57 | 359 | 0.0 | 0.9 | 0.00 | 0.00 | 0.00 | 30 | 1013.9 |
| 20260902083004 | 57 | 359 | 0.0 | 0.9 | 0.00 | 0.00 | 0.00 | 37 | 1014.1 |
| 20260902081503 | 55 | 359 | 0.0 | 0.0 | 0.00 | 0.00 | 0.00 | 37 | 1014.3 |
| 20260902080101 | 55 | 359 | 0.0 | 0.0 | 0.00 | 0.00 | 0.00 | 39 | 1014.5 |
| 20260902074619 | 55 | 359 | 0.0 | 0.9 | 0.00 | 0.00 | 0.00 | 39 | 1014.7 |
| 20260902073058 | 56 | 359 | 0.0 | 0.0 | 0.00 | 0.00 | 0.00 | 35 | 1014.9 |
| 20260902071556 | 57 | 359 | 0.0 | 0.0 | 0.00 | 0.00 | 0.00 | 37 | 1014.9 |
| 20260902070054 | 57 | 359 | 0.0 | 0.0 | 0.00 | 0.00 | 0.00 | 34 | 1015.0 |
| 20260902064554 | 55 | 359 | 0.0 | 0.0 | 0.00 | 0.00 | 0.00 | 40 | 1015.0 |
| 20260902063048 | 55 | 359 | 0.0 | 0.0 | 0.00 | 0.00 | 0.00 | 35 | 1015.3 |
| 20260902061550 | 54 | 359 | 0.0 | 0.9 | 0.00 | 0.00 | 0.00 | 39 | 1015.4 |
| 20260902060045 | 53 | 359 | 0.0 | 0.0 | 0.00 | 0.00 | 0.00 | 41 | 1015.6 |
| 20260902054543 | 53 | 359 | 0.0 | 1.7 | 0.00 | 0.00 | 0.00 | 41 | 1015.7 |
| 20260902053043 | 53 | 359 | 0.0 | 0.0 | 0.00 | 0.00 | 0.00 | 41 | 1015.7 |
| 20260902051541 | 53 | 359 | 0.0 | 0.0 | 0.00 | 0.00 | 0.00 | 40 | 1015.8 |
| 20260902050040 | 54 | 359 | 0.0 | 0.0 | 0.00 | 0.00 | 0.00 | 41 | 1015.6 |
| 20260902044639 | 54 | 359 | 0.0 | 0.0 | 0.00 | 0.00 | 0.00 | 41 | 1015.6 |
| 20260902043043 | 53 | 359 | 0.0 | 0.0 | 0.00 | 0.00 | 0.00 | 44 | 1015.5 |
| 20260902041534 | 53 | 359 | 0.0 | 0.0 | 0.00 | 0.00 | 0.00 | 41 | 1015.5 |
| 20260902040031 | 54 | 359 | 0.0 | 0.0 | 0.00 | 0.00 | 0.00 | 42 | 1015.7 |
| 20260902034531 | 54 | 359 | 0.0 | 0.0 | 0.00 | 0.00 | 0.00 | 40 | 1015.9 |
| 20260902033029 | 55 | 359 | 0.0 | 0.9 | 0.00 | 0.00 | 0.00 | 38 | 1015.8 |
| 20260902031537 | 56 | 359 | 0.0 | 0.0 | 0.00 | 0.00 | 0.00 | 37 | 1016.0 |
| 20260902030031 | 54 | 359 | 0.0 | 0.0 | 0.00 | 0.00 | 0.00 | 37 | 1016.0 |
| 20260902024528 | 54 | 359 | 0.0 | 0.0 | 0.00 | 0.00 | 0.00 | 38 | 1016.2 |
| 20260902023033 | 55 | 359 | 0.0 | 0.0 | 0.00 | 0.00 | 0.00 | 38 | 1016.2 |
| 20260902021529 | 55 | 359 | 0.0 | 0.0 | 0.00 | 0.00 | 0.00 | 38 | 1016.2 |
| 20260902020029 | 56 | 359 | 0.0 | 0.0 | 0.00 | 0.00 | 0.00 | 41 | 1016.1 |
| 20260902014530 | 55 | 359 | 0.0 | 0.0 | 0.00 | 0.00 | 0.00 | 37 | 1016.0 |
| 20260902013025 | 56 | 359 | 0.0 | 0.0 | 0.00 | 0.00 | 0.00 | 37 | 1016.0 |
| 20260902011524 | 57 | 359 | 0.0 | 0.0 | 0.00 | 0.00 | 0.00 | 40 | 1015.8 |
| 20260902010026 | 57 | 359 | 0.0 | 0.0 | 0.00 | 0.00 | 0.00 | 37 | 1015.7 |
| 20260902004528 | 58 | 359 | 0.0 | 0.0 | 0.00 | 0.00 | 0.00 | 37 | 1015.6 |
| 20260902003027 | 59 | 359 | 0.0 | 0.0 | 0.00 | 0.00 | 0.00 | 33 | 1015.6 |
| 20260902001523 | 61 | 359 | 0.0 | 0.0 | 0.00 | 0.00 | 0.00 | 31 | 1015.3 |
| 20260902000022 | 62 | 359 | 0.0 | 0.0 | 0.00 | 0.00 | 0.00 | 31 | 1015.0 |
| 20260901234522 | 64 | 359 | 0.0 | 1.7 | 0.00 | 0.00 | 0.00 | 27 | 1014.6 |
| 20260901233023 | 65 | 359 | 0.0 | 0.0 | 0.00 | 0.00 | 0.00 | 31 | 1014.4 |
| 20260901231521 | 67 | 359 | 0.0 | 0.0 | 0.00 | 0.00 | 0.00 | 25 | 1014.2 |
| 20260901230020 | 69 | 359 | 0.0 | 1.7 | 0.00 | 0.00 | 0.00 | 21 | 1014.1 |
| 20260901224525 | 70 | 341 | 0.0 | 0.9 | 0.00 | 0.00 | 0.00 | 20 | 1014.1 |
| 20260901223019 | 72 | 341 | 0.0 | 0.9 | 0.00 | 0.00 | 0.00 | 20 | 1014.0 |
| 20260901221552 | 73 | 347 | 0.0 | 3.5 | 0.00 | 0.00 | 0.00 | 18 | 1013.8 |
| 20260901220022 | 74 | 315 | 0.0 | 3.5 | 0.00 | 0.00 | 0.00 | 17 | 1013.7 |
| 20260901214517 | 75 | 246 | 1.7 | 6.1 | 0.00 | 0.00 | 0.00 | 15 | 1013.6 |
| 20260901213021 | 75 | 295 | 1.7 | 7.0 | 0.00 | 0.00 | 0.00 | 16 | 1013.6 |
| 20260901211516 | 76 | 283 | 4.3 | 8.7 | 0.00 | 0.00 | 0.00 | 15 | 1013.6 |
| 20260901210014 | 76 | 280 | 4.3 | 8.7 | 0.00 | 0.00 | 0.00 | 15 | 1013.4 |
| 20260901204519 | 78 | 290 | 2.6 | 7.8 | 0.00 | 0.00 | 0.00 | 15 | 1013.2 |
| 20260901203013 | 80 | 271 | 3.5 | 7.0 | 0.00 | 0.00 | 0.00 | 13 | 1013.0 |
| 20260901201512 | 81 | 209 | 1.7 | 5.2 | 0.00 | 0.00 | 0.00 | 13 | 1013.1 |
| 20260901200024 | 81 | 236 | 1.7 | 4.3 | 0.00 | 0.00 | 0.00 | 11 | 1013.1 |
| 20260901194511 | 82 | 252 | 1.7 | 7.0 | 0.00 | 0.00 | 0.00 | 11 | 1013.1 |
| 20260901193012 | 82 | 238 | 1.7 | 5.2 | 0.00 | 0.00 | 0.00 | 11 | 1013.2 |
| 20260901191518 | 83 | 258 | 0.9 | 5.2 | 0.00 | 0.00 | 0.00 | 9 | 1013.2 |
| 20260901190007 | 83 | 277 | 0.9 | 2.6 | 0.00 | 0.00 | 0.00 | 10 | 1013.5 |
| 20260901184507 | 83 | 228 | 0.0 | 4.3 | 0.00 | 0.00 | 0.00 | 11 | 1013.7 |
| 20260901183003 | 83 | 225 | 0.9 | 3.5 | 0.00 | 0.00 | 0.00 | 9 | 1013.9 |
| 20260901181503 | 84 | 58 | 0.0 | 1.7 | 0.00 | 0.00 | 0.00 | 8 | 1013.9 |
| 20260901180002 | 83 | 117 | 0.9 | 2.6 | 0.00 | 0.00 | 0.00 | 8 | 1014.1 |
| 20260901174558 | 82 | 347 | 0.0 | 2.6 | 0.00 | 0.00 | 0.00 | 8 | 1014.4 |
| 20260901173055 | 83 | 332 | 0.9 | 3.5 | 0.00 | 0.00 | 0.00 | 9 | 1015.0 |
| 20260901171600 | 83 | 126 | 0.0 | 0.9 | 0.00 | 0.00 | 0.00 | 12 | 1015.4 |
| 20260901170057 | 82 | 338 | 0.0 | 1.7 | 0.00 | 0.00 | 0.00 | 9 | 1016.0 |
| 20260901164545 | 81 | 79 | 0.0 | 0.9 | 0.00 | 0.00 | 0.00 | 9 | 1016.5 |
| 20260901163045 | 80 | 107 | 0.0 | 2.6 | 0.00 | 0.00 | 0.00 | 9 | 1016.9 |
| 20260901161539 | 79 | 125 | 0.0 | 1.7 | 0.00 | 0.00 | 0.00 | 10 | 1017.5 |
| 20260901160035 | 77 | 151 | 0.9 | 3.5 | 0.00 | 0.00 | 0.00 | 11 | 1017.9 |
| 20260901154528 | 77 | 149 | 0.0 | 2.6 | 0.00 | 0.00 | 0.00 | 11 | 1018.5 |
| 20260901153026 | 75 | 206 | 0.0 | 1.7 | 0.00 | 0.00 | 0.00 | 12 | 1018.9 |
| 20260901151533 | 75 | 196 | 0.0 | 2.6 | 0.00 | 0.00 | 0.00 | 13 | 1019.3 |
| 20260901150026 | 73 | 157 | 0.0 | 3.5 | 0.00 | 0.00 | 0.00 | 15 | 1019.6 |
| 20260901144512 | 72 | 197 | 1.7 | 4.3 | 0.00 | 0.00 | 0.00 | 14 | 1020.0 |
| 20260901143009 | 71 | 117 | 0.9 | 6.1 | 0.00 | 0.00 | 0.00 | 18 | 1020.1 |
| 20260901141505 | 71 | 100 | 1.7 | 5.2 | 0.00 | 0.00 | 0.00 | 15 | 1020.4 |
| 20260901140135 | 69 | 292 | 0.9 | 2.6 | 0.00 | 0.00 | 0.00 | 17 | 1020.6 |
| 20260901134557 | 68 | 89 | 0.9 | 3.5 | 0.00 | 0.00 | 0.00 | 17 | 1020.8 |
| 20260901133052 | 66 | 150 | 2.6 | 5.2 | 0.00 | 0.00 | 0.00 | 16 | 1021.1 |
| 20260901131549 | 65 | 90 | 0.9 | 8.7 | 0.00 | 0.00 | 0.00 | 16 | 1021.3 |
| 20260901130045 | 62 | 98 | 4.3 | 12.2 | 0.00 | 0.00 | 0.00 | 20 | 1021.2 |
| 20260901124640 | 60 | 246 | 0.0 | 2.6 | 0.00 | 0.00 | 0.00 | 26 | 1021.5 |